DW7210 Weather Reports


Display with metric or nautical units.
time (UTC)temp
F
wind
direction
speed
MPH
gust
MPH
rain 1hr
in
rain 24hr
in
rain mn
in
humidity
%
barometer
mb
20260903220316 93 293 4.0 7.0 0.00 0.00 0.00 29 1015.5
20260903215316 92 315 5.0 7.0 0.00 0.00 0.00 31 1015.3
20260903214316 92 293 5.0 7.0 0.00 0.00 0.00 31 1015.6
20260903213316 93 203 4.0 9.0 0.00 0.00 0.00 30 1015.9
20260903212336 94 315 3.0 5.0 0.00 0.00 0.00 29 1016.0
20260903211336 92 315 4.0 6.0 0.00 0.00 0.00 31 1016.0
20260903210316 93 293 2.0 7.0 0.00 0.00 0.00 30 1016.4
20260903205356 93 293 2.0 4.0 0.00 0.00 0.00 30 1016.6
20260903204316 93 270 3.0 6.0 0.00 0.00 0.00 30 1016.8
20260903203316 93 225 5.0 9.0 0.00 0.00 0.00 31 1016.9
20260903202356 92 0.0 0.0 0.00 0.00 0.00 31 1017.0
20260903201316 92 293 1.0 3.0 0.00 0.00 0.00 32 1017.2
20260903200316 91 135 2.0 4.0 0.00 0.00 0.00 32 1017.4
20260903195316 91 315 1.0 5.0 0.00 0.00 0.00 32 1017.5
20260903194316 90 293 3.0 7.0 0.00 0.00 0.00 32 1017.8
20260903193316 89 293 4.0 5.0 0.00 0.00 0.00 34 1018.3
20260903192316 88 315 4.0 5.0 0.00 0.00 0.00 35 1018.2
20260903191316 88 315 1.0 4.0 0.00 0.00 0.00 35 1018.3
20260903190316 89 293 3.0 6.0 0.00 0.00 0.00 35 1018.8
20260903185316 88 270 3.0 5.0 0.00 0.00 0.00 35 1018.9
20260903184316 89 270 1.0 4.0 0.00 0.00 0.00 35 1019.2
20260903183316 88 315 5.0 9.0 0.00 0.00 0.00 37 1019.5
20260903182316 88 315 1.0 6.0 0.00 0.00 0.00 38 1019.6
20260903181336 87 293 3.0 6.0 0.00 0.00 0.00 39 1019.8
20260903180316 87 293 2.0 3.0 0.00 0.00 0.00 39 1020.0
20260903175316 87 293 3.0 6.0 0.00 0.00 0.00 39 1020.1
20260903174316 86 315 4.0 7.0 0.00 0.00 0.00 39 1020.1
20260903173316 86 293 2.0 4.0 0.00 0.00 0.00 40 1020.4
20260903172316 85 0.0 0.0 0.00 0.00 0.00 42 1020.2
20260903171316 84 315 2.0 3.0 0.00 0.00 0.00 43 1020.2
20260903170316 84 0 4.0 7.0 0.00 0.00 0.00 43 1020.2
20260903165316 83 270 2.0 4.0 0.00 0.00 0.00 45 1020.0
20260903164316 83 293 4.0 6.0 0.00 0.00 0.00 45 1019.9
20260903163316 82 293 2.0 4.0 0.00 0.00 0.00 46 1019.9
20260903162316 82 315 4.0 6.0 0.00 0.00 0.00 46 1019.8
20260903161316 82 315 5.0 8.0 0.00 0.00 0.00 45 1019.9
20260903160316 83 0 4.0 8.0 0.00 0.00 0.00 44 1020.1
20260903155316 83 23 3.0 5.0 0.00 0.00 0.00 45 1020.1
20260903154316 82 315 3.0 4.0 0.00 0.00 0.00 46 1020.2
20260903153316 82 293 4.0 7.0 0.00 0.00 0.00 46 1020.1
20260903152316 81 338 4.0 6.0 0.00 0.00 0.00 48 1019.9
20260903151316 80 23 3.0 4.0 0.00 0.00 0.00 50 1020.0
20260903150316 79 0.0 2.0 0.00 0.00 0.00 51 1019.8
20260903145336 77 45 4.0 7.0 0.00 0.00 0.00 53 1019.7
20260903144316 76 0.0 0.0 0.00 0.00 0.00 55 1019.5
20260903143316 76 338 2.0 3.0 0.00 0.00 0.00 55 1019.7
20260903142316 76 0.0 0.0 0.00 0.00 0.00 56 1019.6
20260903141316 75 338 1.0 4.0 0.00 0.00 0.00 56 1019.7
20260903140316 75 293 2.0 4.0 0.00 0.00 0.00 56 1019.8
20260903135316 75 0.0 0.0 0.00 0.00 0.00 56 1019.9
20260903134315 75 0.0 0.0 0.00 0.00 0.00 56 1019.7
20260903133316 74 0.0 0.0 0.00 0.00 0.00 57 1019.8
20260903132315 74 0.0 0.0 0.00 0.00 0.00 56 1020.0
20260903131316 74 315 1.0 3.0 0.00 0.00 0.00 57 1020.1
20260903130316 73 0.0 0.0 0.00 0.00 0.00 57 1019.6
20260903125316 73 0.0 0.0 0.00 0.00 0.00 58 1019.9
20260903124335 73 0.0 0.0 0.00 0.00 0.00 58 1019.8
20260903123316 73 0.0 0.0 0.00 0.00 0.00 58 1019.8
20260903122316 73 0.0 0.0 0.00 0.00 0.00 57 1019.8
20260903121316 73 0.0 0.0 0.00 0.00 0.00 58 1019.9
20260903120316 73 225 4.0 9.0 0.00 0.00 0.00 57 1019.8
20260903115316 73 225 1.0 2.0 0.00 0.00 0.00 58 1019.7
20260903114336 73 158 3.0 4.0 0.00 0.00 0.00 58 1019.6
20260903113316 73 0.0 0.0 0.00 0.00 0.00 59 1019.3
20260903112356 73 0.0 0.0 0.00 0.00 0.00 58 1019.4
20260903111316 73 0.0 0.0 0.00 0.00 0.00 58 1019.2
20260903110315 73 0.0 0.0 0.00 0.00 0.00 58 1019.1
20260903105315 73 0.0 0.0 0.00 0.00 0.00 59 1019.0
20260903104336 73 0.0 0.0 0.00 0.00 0.00 59 1019.1
20260903103316 73 0.0 0.0 0.00 0.00 0.00 59 1019.0
20260903102316 74 0.0 0.0 0.00 0.00 0.00 58 1019.0
20260903101316 74 0.0 0.0 0.00 0.00 0.00 57 1019.2
20260903100316 74 0.0 0.0 0.00 0.00 0.00 57 1019.3
20260903095315 74 0.0 0.0 0.00 0.00 0.00 58 1019.3
20260903094315 75 0.0 0.0 0.00 0.00 0.00 56 1019.2
20260903093316 75 0.0 0.0 0.00 0.00 0.00 55 1019.3
20260903092316 75 0.0 0.0 0.00 0.00 0.00 54 1019.0
20260903091335 76 0.0 0.0 0.00 0.00 0.00 54 1019.0
20260903090335 75 0.0 0.0 0.00 0.00 0.00 55 1019.1
20260903085315 75 0.0 0.0 0.00 0.00 0.00 55 1019.3
20260903084315 75 0.0 0.0 0.00 0.00 0.00 55 1019.4
20260903083335 76 0.0 0.0 0.00 0.00 0.00 55 1019.3
20260903082315 76 0.0 0.0 0.00 0.00 0.00 54 1019.5
20260903081336 76 293 1.0 2.0 0.00 0.00 0.00 54 1019.4
20260903080316 76 0.0 0.0 0.00 0.00 0.00 53 1019.6
20260903075316 77 0.0 0.0 0.00 0.00 0.00 53 1019.7
20260903074315 78 225 5.0 8.0 0.00 0.00 0.00 52 1019.7
20260903073315 78 225 1.0 6.0 0.00 0.00 0.00 50 1019.6
20260903072316 79 0.0 2.0 0.00 0.00 0.00 47 1019.4
20260903071315 80 293 4.0 10.0 0.00 0.00 0.00 42 1019.5
20260903070316 81 0.0 0.0 0.00 0.00 0.00 37 1019.2
20260903065315 80 0.0 0.0 0.00 0.00 0.00 39 1018.8
20260903064336 81 0.0 0.0 0.00 0.00 0.00 37 1018.8
20260903063316 82 0.0 0.0 0.00 0.00 0.00 36 1018.6
20260903062316 83 0.0 0.0 0.00 0.00 0.00 35 1018.3
20260903061315 83 0.0 0.0 0.00 0.00 0.00 35 1018.5
20260903060335 83 0.0 0.0 0.00 0.00 0.00 35 1018.6
20260903055356 83 0.0 0.0 0.00 0.00 0.00 35 1018.8
20260903054316 84 0.0 0.0 0.00 0.00 0.00 36 1018.9
20260903053316 83 0.0 0.0 0.00 0.00 0.00 36 1018.9
20260903052315 83 0.0 0.0 0.00 0.00 0.00 36 1018.6
20260903051316 84 0.0 0.0 0.00 0.00 0.00 36 1018.5
20260903050315 84 0.0 0.0 0.00 0.00 0.00 35 1018.7
20260903045336 84 0.0 0.0 0.00 0.00 0.00 35 1018.4
20260903044316 84 0.0 0.0 0.00 0.00 0.00 34 1018.3
20260903043315 84 0.0 0.0 0.00 0.00 0.00 34 1018.3
20260903042316 84 0.0 0.0 0.00 0.00 0.00 35 1018.3
20260903041315 85 0.0 0.0 0.00 0.00 0.00 33 1018.2
20260903040336 85 0.0 0.0 0.00 0.00 0.00 32 1018.1
20260903035315 85 0.0 0.0 0.00 0.00 0.00 32 1017.7
20260903034315 85 0.0 0.0 0.00 0.00 0.00 32 1017.6
20260903033315 86 0.0 0.0 0.00 0.00 0.00 32 1017.8
20260903032316 86 0.0 0.0 0.00 0.00 0.00 32 1017.5
20260903031315 86 0.0 0.0 0.00 0.00 0.00 31 1017.4
20260903030316 87 0.0 0.0 0.00 0.00 0.00 31 1017.2
20260903025315 86 293 1.0 4.0 0.00 0.00 0.00 31 1017.0
20260903024315 87 0.0 0.0 0.00 0.00 0.00 31 1016.7
20260903023316 87 0.0 0.0 0.00 0.00 0.00 30 1016.7
20260903022316 87 0.0 0.0 0.00 0.00 0.00 30 1016.1
20260903021316 88 0.0 0.0 0.00 0.00 0.00 29 1016.2
20260903020315 88 0.0 0.0 0.00 0.00 0.00 29 1016.2
20260903015315 89 0.0 0.0 0.00 0.00 0.00 29 1015.6
20260903014315 89 0.0 0.0 0.00 0.00 0.00 28 1015.5
20260903013315 90 248 1.0 3.0 0.00 0.00 0.00 27 1015.5
20260903012315 90 0.0 0.0 0.00 0.00 0.00 27 1015.4
20260903011316 91 0.0 0.0 0.00 0.00 0.00 26 1015.6
20260903010316 92 0.0 0.0 0.00 0.00 0.00 25 1015.5
20260903005315 94 315 1.0 3.0 0.00 0.00 0.00 25 1015.8
20260903004316 94 0.0 0.0 0.00 0.00 0.00 25 1015.9
20260903003315 94 0.0 0.0 0.00 0.00 0.00 24 1015.9
20260903002315 94 0.0 4.0 0.00 0.00 0.00 24 1016.1
20260903001315 94 0.0 0.0 0.00 0.00 0.00 24 1016.1
20260903000317 94 315 3.0 7.0 0.00 0.00 0.00 24 1016.1
20260902235316 94 0.0 0.0 0.00 0.00 0.00 24 1016.1
20260902234335 94 0.0 2.0 0.00 0.00 0.00 23 1016.2
20260902233315 93 0.0 2.0 0.00 0.00 0.00 24 1016.0
20260902232315 94 293 4.0 6.0 0.00 0.00 0.00 22 1016.5
20260902231335 95 23 1.0 3.0 0.00 0.00 0.00 22 1016.6
20260902230315 95 315 7.0 11.0 0.00 0.00 0.00 22 1016.8
20260902225316 94 315 2.0 5.0 0.00 0.00 0.00 22 1016.9
20260902224316 94 23 2.0 5.0 0.00 0.00 0.00 23 1017.0
20260902223315 95 293 7.0 12.0 0.00 0.00 0.00 22 1016.9
20260902222315 96 0.0 0.0 0.00 0.00 0.00 22 1017.1
20260902221315 96 0.0 0.0 0.00 0.00 0.00 23 1017.1